1522008000.06,24408,11.56,72594.0,-9.33,-42.45,-42.45,0,*53
1522008001.35,24409,11.56,72590.0,-9.33,-42.45,-42.45,0,*52
1522008002.64,24410,11.56,72594.3,-9.33,-42.45,-42.31,0,*59
1522008003.94,24411,11.56,72596.3,-9.33,-42.45,-42.31,0,*58
1522008005.23,24412,11.56,72590.5,-9.33,-42.45,-42.45,0,*58
1522008006.47,24413,11.56,72590.3,-9.33,-42.51,-42.63,0,*58
1522008007.72,24414,11.56,72592.3,-9.33,-42.51,-42.51,0,*5E
1522008009.0,24415,11.56,72590.8,-9.33,-42.45,-42.45,0,*5F
1522008010.25,24416,11.56,72588.3,-9.33,-42.51,-42.51,0,*5C
1522008011.49,24417,11.56,72586.3,-9.33,-42.51,-42.63,0,*5C
1522008012.73,24418,11.56,72586.5,-9.33,-42.63,-42.63,0,*52
1522008013.98,24419,11.56,72590.0,-9.33,-42.63,-42.63,0,*53
1522008015.27,24420,11.56,72590.5,-9.33,-42.69,-42.69,0,*59
1522008016.53,24421,11.56,72586.0,-9.35,-42.45,-42.45,0,*5E
1522008017.8,24422,11.56,72588.5,-9.33,-42.31,-42.51,0,*5D
1522008019.04,24423,11.56,72590.0,-9.33,-42.51,-42.51,0,*5A
1522008020.29,24424,11.56,72584.5,-9.33,-42.63,-42.51,0,*5C
1522008021.55,24425,11.56,72588.0,-9.33,-42.69,-42.63,0,*56
1522008022.8,24426,11.56,72590.5,-9.33,-42.51,-42.63,0,*5E
1522008024.06,24427,11.56,72584.8,-9.33,-42.51,-42.45,0,*5B
1522008025.3,24428,11.56,72590.0,-9.33,-42.63,-42.51,0,*50
1522008026.59,24429,11.56,72588.8,-9.33,-42.45,-42.45,0,*50
1522008027.81,24430,11.56,72588.0,-9.31,-42.25,-42.37,0,*59
1522008029.05,24431,11.56,72594.5,-9.33,-42.63,-42.51,0,*58
1522008030.29,24432,11.56,72592.3,-9.33,-42.63,-42.63,0,*5A
1522008031.54,24433,11.56,72588.0,-9.33,-42.63,-42.63,0,*5B
1522008032.78,24434,11.56,72588.8,-9.33,-42.63,-42.63,0,*5C
1522008034.07,24435,11.56,72588.5,-9.33,-42.45,-42.45,0,*5D
1522008035.34,24436,11.56,72586.5,-9.33,-42.25,-42.31,0,*5B
1522008036.61,24437,11.56,72586.0,-9.33,-42.25,-42.31,0,*5A
1522008037.91,24438,11.56,72584.0,-9.33,-42.31,-42.31,0,*50
1522008039.2,24439,11.56,72584.5,-9.33,-42.45,-42.45,0,*51
1522008040.41,24440,11.56,72584.3,-9.31,-42.37,-42.37,0,*5D
1522008041.69,24441,11.56,72586.5,-9.31,-42.19,-42.19,0,*5C
1522008042.95,24442,11.56,72584.3,-9.31,-42.45,-42.45,0,*5F
1522008044.19,24443,11.56,72584.0,-9.29,-42.25,-42.37,0,*54
1522008045.43,24444,11.56,72584.5,-9.29,-42.25,-42.37,0,*53
1522008046.68,24445,11.56,72592.0,-9.29,-42.25,-42.37,0,*52
1522008047.94,24446,11.56,72588.3,-9.31,-42.45,-42.45,0,*5B
1522008049.18,24447,11.56,72590.5,-9.31,-42.57,-42.63,0,*5D
1522008050.4,24448,11.56,72586.8,-9.31,-42.37,-42.37,0,*55
1522008051.63,24449,11.56,72588.0,-9.31,-42.45,-42.37,0,*51
1522008052.9,24450,11.56,72584.3,-9.31,-42.45,-42.45,0,*5C
1522008054.11,24451,11.56,72584.5,-9.31,-42.37,-42.37,0,*5D
1522008055.33,24452,11.56,72590.0,-9.31,-42.25,-42.37,0,*5D
1522008056.54,24453,11.56,72588.8,-9.31,-42.37,-42.37,0,*5F
1522008057.75,24454,11.56,72586.0,-9.31,-42.37,-42.37,0,*58
1522008058.99,24455,11.56,72584.0,-9.29,-42.37,-42.37,0,*50
1522008060.21,24456,11.56,72582.3,-9.31,-42.25,-42.37,0,*59
1522008061.45,24457,11.56,72584.0,-9.31,-42.05,-42.25,0,*59
1522008062.69,24458,11.56,72586.5,-9.31,-42.19,-42.25,0,*5B
1522008063.91,24459,11.56,72580.8,-9.31,-42.37,-42.25,0,*56
1522008065.18,24460,11.56,72586.3,-9.31,-42.05,-42.19,0,*52
1522008066.45,24461,11.56,72584.8,-9.29,-42.19,-42.25,0,*58
1522008067.69,24462,11.56,72586.0,-9.29,-42.37,-42.25,0,*57
1522008068.96,24463,11.56,72586.8,-9.29,-42.37,-42.45,0,*50
1522008070.2,24464,11.56,72584.3,-9.29,-42.25,-42.37,0,*51
1522008071.47,24465,11.56,72584.5,-9.29,-42.19,-42.25,0,*5C
1522008072.75,24466,11.56,72586.8,-9.29,-42.19,-42.25,0,*5F
1522008074.02,24467,11.56,72584.3,-9.27,-42.31,-42.19,0,*55
1522008075.26,24468,11.56,72586.3,-9.23,-42.37,-42.31,0,*52
1522008076.5,24469,11.56,72584.0,-9.23,-42.37,-42.31,0,*53
1522008077.74,24470,11.56,72590.8,-9.23,-42.37,-42.31,0,*5B
1522008078.98,24471,11.56,72588.3,-9.27,-42.37,-42.31,0,*5E
1522008080.23,24472,11.56,72592.5,-9.29,-42.25,-42.25,0,*55
1522008081.47,24473,11.56,72588.5,-9.29,-42.37,-42.25,0,*57
1522008082.74,24474,11.56,72590.0,-9.29,-42.57,-42.37,0,*55
1522008083.98,24475,11.56,72588.5,-9.23,-42.37,-42.31,0,*5E
1522008085.22,24476,11.56,72586.0,-9.27,-42.51,-42.31,0,*59
1522008086.44,24477,11.56,72586.3,-9.27,-42.37,-42.37,0,*5E
1522008087.68,24478,11.56,72584.5,-9.27,-42.37,-42.31,0,*57
1522008088.9,24479,11.56,72588.0,-9.27,-42.51,-42.51,0,*50
1522008090.14,24480,11.5,72584.0,-9.23,-42.37,-42.31,0,*54
1522008091.36,24481,11.56,72586.0,-9.27,-42.37,-42.37,0,*57
1522008092.58,24482,11.56,72590.3,-9.27,-42.51,-42.51,0,*54
1522008093.83,24483,11.56,72588.3,-9.23,-42.57,-42.57,0,*51
1522008095.07,24484,11.56,72586.0,-9.27,-42.31,-42.37,0,*54
1522008096.31,24485,11.56,72584.8,-9.21,-42.25,-42.25,0,*55
1522008097.53,24486,11.56,72586.5,-9.27,-42.37,-42.37,0,*50
1522008098.79,24487,11.56,72586.5,-9.23,-42.31,-42.31,0,*55
1522008100.03,24488,11.56,72580.5,-9.23,-42.13,-42.19,0,*50
1522008101.24,24489,11.56,72586.8,-9.23,-41.99,-42.13,0,*5A
1522008102.45,24490,11.56,72588.3,-9.27,-41.99,-42.13,0,*56
1522008103.69,24491,11.56,72594.3,-9.23,-41.99,-42.19,0,*59
1522008104.93,24492,11.56,72588.0,-9.21,-42.25,-42.25,0,*53
1522008106.23,24493,11.56,72590.3,-9.21,-42.45,-42.31,0,*51
1522008107.47,24494,11.56,72588.8,-9.23,-42.37,-42.31,0,*51
1522008108.71,24495,11.56,72584.5,-9.23,-42.37,-42.31,0,*50
1522008109.94,24496,11.56,72588.8,-9.23,-42.57,-42.51,0,*53
1522008111.15,24497,11.56,72586.5,-9.23,-42.37,-42.51,0,*54
1522008112.36,24498,11.56,72588.0,-9.23,-42.51,-42.51,0,*5B
1522008113.62,24499,11.56,72590.8,-9.23,-42.57,-42.69,0,*57
1522008114.88,24500,11.56,72594.3,-9.23,-42.69,-42.57,0,*56
1522008116.11,24501,11.56,72588.0,-9.23,-42.57,-42.51,0,*5C
1522008117.37,24502,11.56,72586.8,-9.23,-42.57,-42.69,0,*54
1522008118.63,24503,11.56,72588.3,-9.21,-42.63,-42.69,0,*50
1522008119.88,24504,11.5,72582.3,-9.23,-42.57,-42.69,0,*52
1522008121.14,24505,11.56,72584.0,-9.23,-42.57,-42.57,0,*5E
1522008122.35,24506,11.56,72586.3,-9.23,-42.51,-42.51,0,*5D
1522008123.58,24507,11.56,72584.5,-9.23,-42.57,-42.51,0,*5A
1522008124.79,24508,11.56,72588.0,-9.23,-42.37,-42.37,0,*53
1522008126.03,24509,11.56,72588.3,-9.23,-42.37,-42.31,0,*54
1522008127.24,24510,11.5,72584.3,-9.23,-42.37,-42.51,0,*5A
1522008128.45,24511,11.56,72584.3,-9.23,-42.37,-42.37,0,*5B
1522008129.66,24512,11.5,72586.0,-9.23,-42.51,-42.51,0,*58
1522008130.88,24513,11.56,72586.8,-9.23,-42.51,-42.51,0,*59
1522008132.12,24514,11.56,72590.5,-9.23,-42.37,-42.31,0,*58
1522008133.33,24515,11.56,72588.5,-9.19,-42.13,-42.25,0,*53
1522008134.61,24516,11.5,72584.5,-9.21,-42.25,-42.31,0,*5B
1522008135.87,24517,11.5,72586.8,-9.21,-42.31,-42.25,0,*5A
1522008137.16,24518,11.56,72586.8,-9.21,-42.45,-42.45,0,*50
1522008138.46,24519,11.5,72584.3,-9.21,-42.31,-42.31,0,*51
1522008139.75,24520,11.56,72586.0,-9.21,-42.45,-42.31,0,*58
1522008141.04,24521,11.5,72582.0,-9.21,-42.31,-42.45,0,*59
1522008142.26,24522,11.56,72586.3,-9.19,-42.51,-42.51,0,*52
1522008143.54,24523,11.56,72586.5,-9.21,-42.45,-42.45,0,*58
1522008144.83,24524,11.56,72584.0,-9.21,-42.45,-42.45,0,*5F
1522008146.07,24525,11.5,72590.5,-9.21,-42.63,-42.51,0,*5F
1522008147.31,24526,11.5,72588.0,-9.21,-42.63,-42.51,0,*5C
1522008148.57,24527,11.56,72586.8,-9.21,-42.51,-42.45,0,*59
1522008149.86,24528,11.56,72584.3,-9.21,-42.45,-42.31,0,*50
1522008151.13,24529,11.5,72584.0,-9.21,-42.45,-42.51,0,*57
1522008152.39,24530,11.56,72584.5,-9.19,-42.45,-42.45,0,*51
1522008153.63,24531,11.56,72584.0,-9.21,-42.51,-42.51,0,*5B
1522008154.87,24532,11.56,72586.5,-9.23,-42.51,-42.45,0,*5F
1522008156.1,24533,11.56,72584.8,-9.23,-42.69,-42.51,0,*50
1522008157.34,24534,11.5,72584.3,-9.21,-42.63,-42.51,0,*5F
1522008158.6,24535,11.56,72590.0,-9.21,-42.63,-42.69,0,*55
1522008159.87,24536,11.56,72588.3,-9.21,-42.63,-42.69,0,*56
1522008161.11,24537,11.56,72590.0,-9.21,-42.63,-42.51,0,*5C
1522008162.38,24538,11.56,72590.3,-9.21,-42.51,-42.31,0,*54
1522008163.67,24539,11.5,72586.5,-9.21,-42.45,-42.31,0,*50
1522008164.91,24540,11.56,72584.8,-9.21,-42.63,-42.63,0,*5D
1522008166.16,24541,11.56,72584.5,-9.21,-42.63,-42.63,0,*5C
1522008167.4,24542,11.56,72584.8,-9.21,-42.63,-42.63,0,*5F
1522008168.64,24543,11.56,72584.0,-9.21,-42.51,-42.51,0,*5E
1522008169.89,24544,11.5,72584.3,-9.23,-42.57,-42.57,0,*5B
1522008171.13,24545,11.56,72590.5,-9.23,-42.69,-42.75,0,*57
1522008172.37,24546,11.5,72584.5,-9.21,-42.63,-42.51,0,*5A
1522008173.62,24547,11.56,72590.8,-9.21,-42.51,-42.63,0,*5B
1522008174.86,24548,11.56,72586.5,-9.21,-42.63,-42.51,0,*54
1522008176.12,24549,11.56,72584.0,-9.21,-42.45,-42.51,0,*51
1522008177.37,24550,11.5,72582.5,-9.21,-42.51,-42.51,0,*5C
1522008178.6,24551,11.56,72584.3,-9.21,-42.63,-42.51,0,*5C
1522008179.85,24552,11.5,72584.5,-9.21,-42.51,-42.63,0,*5F
1522008181.14,24553,11.5,72584.5,-9.21,-42.45,-42.45,0,*5F
1522008182.4,24554,11.56,72584.8,-9.21,-42.51,-42.45,0,*5D
1522008183.66,24555,11.5,72582.0,-9.21,-42.51,-42.45,0,*5C
1522008184.9,24556,11.56,72586.3,-9.21,-42.51,-42.51,0,*5A
1522008186.16,24557,11.56,72588.8,-9.21,-42.63,-42.45,0,*5F
1522008187.4,24558,11.5,72584.5,-9.21,-42.63,-42.51,0,*55
1522008188.64,24559,11.5,72586.8,-9.21,-42.63,-42.51,0,*54
1522008189.88,24560,11.5,72586.5,-9.21,-42.63,-42.63,0,*5F
1522008191.13,24561,11.56,72586.0,-9.21,-42.51,-42.51,0,*5E
1522008192.37,24562,11.5,72586.3,-9.21,-42.51,-42.51,0,*5D
1522008193.61,24563,11.5,72584.3,-9.21,-42.63,-42.51,0,*5D
1522008194.85,24564,11.5,72586.8,-9.21,-42.63,-42.63,0,*5B
1522008196.14,24565,11.5,72584.5,-9.21,-42.83,-42.83,0,*5A
1522008197.42,24566,11.5,72584.3,-9.21,-42.69,-42.69,0,*59
1522008198.66,24567,11.5,72580.8,-9.23,-42.75,-42.69,0,*57
1522008199.91,24568,11.5,72584.3,-9.23,-42.57,-42.57,0,*55
1522008201.15,24569,11.5,72584.0,-9.21,-42.63,-42.51,0,*57
1522008202.41,24570,11.5,72584.5,-9.23,-42.57,-42.57,0,*5C
1522008203.69,24571,11.56,72590.5,-9.21,-42.45,-42.45,0,*5F
1522008204.96,24572,11.5,72580.8,-9.21,-42.45,-42.51,0,*59
1522008206.2,24573,11.5,72584.3,-9.21,-42.51,-42.63,0,*5C
1522008207.45,24574,11.5,72590.5,-9.21,-42.51,-42.63,0,*5B
1522008208.69,24575,11.56,72592.0,-9.21,-42.63,-42.63,0,*5B
1522008209.93,24576,11.5,72586.8,-9.21,-42.51,-42.51,0,*58
1522008211.17,24577,11.5,72582.0,-9.21,-42.63,-42.63,0,*59
1522008212.42,24578,11.5,72582.0,-9.21,-42.51,-42.63,0,*57
1522008213.66,24579,11.5,72584.0,-9.21,-42.63,-42.63,0,*57
1522008214.91,24580,11.56,72586.5,-9.21,-42.51,-42.63,0,*50
1522008216.16,24581,11.5,72582.0,-9.23,-42.69,-42.57,0,*5F
1522008217.39,24582,11.56,72586.0,-9.23,-42.57,-42.37,0,*57
1522008218.68,24583,11.5,72582.8,-9.21,-42.31,-42.45,0,*51
1522008219.89,24584,11.5,72582.8,-9.23,-42.51,-42.37,0,*57
1522008221.17,24585,11.5,72584.3,-9.21,-42.45,-42.45,0,*54
1522008222.46,24586,11.5,72584.3,-9.21,-42.45,-42.45,0,*57
1522008223.7,24587,11.5,72588.8,-9.21,-42.51,-42.51,0,*56
1522008224.94,24588,11.5,72584.3,-9.19,-42.51,-42.45,0,*57
1522008226.23,24589,11.5,72582.0,-9.21,-42.45,-42.31,0,*5B
1522008227.5,24590,11.5,72584.3,-9.19,-42.31,-42.45,0,*58
1522008228.76,24591,11.5,72584.3,-9.21,-42.31,-42.25,0,*54
1522008230.03,24592,11.5,72582.8,-9.21,-42.51,-42.45,0,*57
1522008231.27,24593,11.5,72590.0,-9.19,-42.31,-42.25,0,*5D
1522008232.53,24594,11.5,72582.5,-9.19,-42.31,-42.45,0,*5C
1522008233.8,24595,11.5,72578.5,-9.21,-42.45,-42.51,0,*50
1522008235.04,24596,11.5,72582.5,-9.21,-42.63,-42.51,0,*57
1522008236.28,24597,11.5,72580.5,-9.21,-42.63,-42.63,0,*57
1522008237.52,24598,11.5,72580.8,-9.21,-42.63,-42.51,0,*59
1522008238.78,24599,11.5,72584.0,-9.21,-42.51,-42.45,0,*5C
1522008240.08,24600,11.5,72586.5,-9.21,-42.45,-42.31,0,*59
1522008241.32,24601,11.5,72588.8,-9.21,-42.51,-42.51,0,*5B
1522008242.54,24602,11.5,72584.3,-9.19,-42.51,-42.51,0,*53
1522008243.78,24603,11.56,72590.8,-9.21,-42.63,-42.63,0,*59
1522008245.0,24604,11.5,72586.0,-9.19,-42.63,-42.51,0,*54
1522008246.26,24605,11.5,72584.0,-9.21,-42.51,-42.45,0,*5A
1522008247.54,24606,11.5,72582.5,-9.21,-42.45,-42.45,0,*5C
1522008248.79,24607,11.5,72580.3,-9.21,-42.51,-42.51,0,*5D
1522008250.03,24608,11.5,72584.0,-9.21,-42.51,-42.63,0,*53
1522008251.27,24609,11.5,72582.3,-9.21,-42.63,-42.51,0,*52
1522008252.51,24610,11.5,72586.3,-9.21,-42.63,-42.51,0,*5A
1522008253.77,24611,11.5,72586.5,-9.21,-42.63,-42.69,0,*50
1522008255.02,24612,11.5,72582.5,-9.21,-42.63,-42.63,0,*59
1522008256.24,24613,11.5,72582.3,-9.19,-42.51,-42.63,0,*52
1522008257.48,24614,11.5,72584.8,-9.21,-42.63,-42.51,0,*5E
1522008258.72,24615,11.5,72582.0,-9.21,-42.63,-42.63,0,*5E
1522008259.96,24616,11.5,72582.8,-9.21,-42.63,-42.51,0,*5C
1522008261.23,24617,11.5,72582.3,-9.21,-42.51,-42.31,0,*5A
1522008262.47,24618,11.5,72582.0,-9.21,-42.25,-42.25,0,*53
1522008263.74,24619,11.5,72584.3,-9.21,-42.51,-42.31,0,*54
1522008265.03,24620,11.5,72582.8,-9.21,-42.45,-42.45,0,*58
1522008266.32,24621,11.5,72580.3,-9.21,-42.45,-42.31,0,*5A
1522008267.59,24622,11.5,72586.0,-9.19,-42.31,-42.31,0,*51
1522008268.86,24623,11.5,72586.0,-9.21,-42.31,-42.25,0,*5E
1522008270.13,24624,11.5,72586.5,-9.19,-42.45,-42.31,0,*54
1522008271.37,24625,11.5,72580.5,-9.19,-42.31,-42.25,0,*53
1522008272.59,24626,11.5,72576.3,-9.19,-42.63,-42.51,0,*54
1522008273.85,24627,11.5,72580.5,-9.21,-42.63,-42.69,0,*55
1522008275.15,24628,11.5,72580.5,-9.21,-42.31,-42.31,0,*50
1522008276.39,24629,11.5,72580.8,-9.19,-42.31,-42.25,0,*5F
1522008277.64,24630,11.5,72582.5,-9.19,-42.25,-42.31,0,*57
1522008278.91,24631,11.5,72580.5,-9.21,-42.31,-42.25,0,*5D
1522008280.13,24632,11.5,72582.3,-9.19,-42.25,-42.25,0,*50
1522008281.37,24633,11.5,72582.0,-9.19,-42.51,-42.31,0,*57
1522008282.64,24634,11.5,72580.5,-9.19,-42.45,-42.31,0,*55
1522008283.91,24635,11.5,72582.8,-9.19,-42.45,-42.45,0,*57
1522008285.15,24636,11.5,72578.0,-9.19,-42.31,-42.25,0,*51
1522008286.4,24637,11.5,72576.0,-9.19,-42.25,-42.31,0,*50
1522008287.64,24638,11.56,72582.0,-9.19,-42.51,-42.45,0,*5F
1522008288.91,24639,11.5,72578.8,-9.19,-42.31,-42.31,0,*5B
1522008290.17,24640,11.5,72576.3,-9.17,-42.45,-42.37,0,*5E
1522008291.44,24641,11.5,72576.3,-9.17,-42.37,-42.19,0,*56
1522008292.71,24642,11.5,72576.8,-9.17,-42.25,-42.19,0,*56
1522008294.0,24643,11.5,72582.5,-9.17,-42.05,-42.19,0,*55
1522008295.26,24644,11.5,72580.5,-9.17,-41.99,-42.05,0,*59
1522008296.53,24645,11.5,72580.8,-9.17,-42.25,-42.19,0,*51
1522008297.83,24646,11.5,72582.0,-9.17,-42.19,-42.19,0,*5D
1522008299.1,24647,11.5,72578.8,-9.17,-42.25,-42.19,0,*53
1522008300.4,24648,11.5,72580.3,-9.15,-42.19,-42.19,0,*51
1522008301.64,24649,11.5,72574.3,-9.17,-42.25,-42.25,0,*52
1522008302.91,24650,11.5,72576.0,-9.15,-42.25,-42.19,0,*57
1522008304.14,24651,11.5,72582.8,-9.15,-42.37,-42.37,0,*59
1522008305.38,24652,11.5,72574.3,-9.15,-42.25,-42.25,0,*5A
1522008306.68,24653,11.5,72578.8,-9.15,-42.19,-42.19,0,*5B
1522008307.92,24654,11.5,72578.5,-9.15,-41.87,-41.99,0,*53
1522008309.18,24655,11.5,72580.0,-9.17,-41.99,-42.05,0,*59
1522008310.42,24656,11.5,72584.5,-9.15,-41.87,-41.99,0,*51
1522008311.71,24657,11.5,72582.5,-9.15,-42.19,-42.05,0,*52
1522008312.98,24658,11.5,72582.0,-9.17,-42.05,-41.99,0,*54
1522008314.26,24659,11.5,72584.5,-9.15,-42.05,-42.05,0,*51
1522008315.47,24660,11.5,72580.8,-9.13,-42.13,-42.13,0,*5D
1522008316.75,24661,11.5,72580.0,-9.13,-42.19,-42.19,0,*5C
1522008318.02,24662,11.5,72582.0,-9.13,-42.31,-42.19,0,*55
1522008319.28,24663,11.5,72584.0,-9.13,-42.31,-42.19,0,*54
1522008320.53,24664,11.5,72580.8,-9.13,-42.19,-42.13,0,*53
1522008321.77,24665,11.5,72582.5,-9.13,-42.19,-42.13,0,*52
1522008322.98,24666,11.5,72584.3,-9.13,-41.99,-42.13,0,*5A
1522008324.19,24667,11.5,72584.8,-9.13,-42.13,-42.13,0,*5A
1522008325.41,24668,11.5,72582.8,-9.13,-42.13,-42.13,0,*55
1522008326.62,24669,11.5,72578.8,-9.13,-41.99,-42.13,0,*55
1522008327.86,24670,11.5,72576.5,-9.13,-41.93,-42.13,0,*57
1522008329.09,24671,11.5,72574.8,-9.13,-41.93,-42.13,0,*56
1522008330.39,24672,11.5,72578.5,-9.11,-42.31,-42.19,0,*56
1522008331.66,24673,11.5,72580.5,-9.13,-42.19,-42.19,0,*5F
1522008332.96,24674,11.5,72576.8,-9.11,-42.31,-42.19,0,*50
1522008334.2,24675,11.5,72576.5,-9.09,-42.13,-42.05,0,*55
1522008335.44,24676,11.5,72576.0,-9.11,-41.99,-42.13,0,*59
1522008336.68,24677,11.5,72582.5,-9.11,-41.99,-41.99,0,*59
1522008337.89,24678,11.5,72582.3,-9.13,-41.99,-41.99,0,*54
1522008339.13,24679,11.5,72578.8,-9.11,-41.99,-42.13,0,*56
1522008340.37,24680,11.5,72580.3,-9.11,-42.13,-42.13,0,*51
1522008341.62,24681,11.5,72576.8,-9.11,-42.13,-41.99,0,*51
1522008342.87,24682,11.5,72576.3,-9.09,-42.13,-42.19,0,*50
1522008344.1,24683,11.5,72578.8,-9.09,-42.05,-42.13,0,*5C
1522008345.32,24684,11.5,72578.3,-9.09,-42.25,-42.13,0,*59
1522008346.59,24685,11.5,72578.8,-9.09,-42.05,-42.05,0,*5D
1522008347.84,24686,11.5,72578.8,-9.09,-42.25,-42.31,0,*5B
1522008349.06,24687,11.5,72578.0,-9.09,-42.13,-42.13,0,*5F
1522008350.31,24688,11.5,72580.0,-9.09,-42.25,-42.31,0,*55
1522008351.55,24689,11.5,72582.3,-9.07,-42.13,-42.25,0,*5A
1522008352.81,24690,11.5,72582.0,-9.09,-42.05,-42.05,0,*59
1522008354.09,24691,11.5,72584.0,-9.07,-42.05,-42.05,0,*56
1522008355.37,24692,11.5,72580.8,-9.07,-42.05,-42.05,0,*55
1522008356.61,24693,11.5,72576.3,-9.09,-42.13,-42.05,0,*5D
1522008357.86,24694,11.5,72582.0,-9.09,-42.13,-42.05,0,*5A
1522008359.12,24695,11.5,72576.8,-9.07,-42.13,-42.05,0,*55
1522008360.4,24696,11.5,72578.0,-9.07,-42.05,-42.05,0,*51
1522008361.62,24697,11.5,72586.0,-9.09,-42.25,-42.13,0,*5B
1522008362.85,24698,11.5,72582.0,-9.07,-42.25,-42.25,0,*5F
1522008364.15,24699,11.5,72580.5,-9.07,-42.31,-42.31,0,*5E
1522008365.43,24700,11.5,72582.8,-9.07,-42.45,-42.45,0,*5F
1522008366.71,24701,11.5,72586.0,-9.07,-42.31,-42.45,0,*5D
1522008368.0,24702,11.5,72582.3,-9.07,-42.45,-42.31,0,*5E
1522008369.28,24703,11.5,72582.0,-9.07,-42.45,-42.45,0,*5C
1522008370.57,24704,11.5,72584.8,-9.07,-42.31,-42.31,0,*5B
1522008371.86,24705,11.5,72580.3,-9.07,-42.31,-42.31,0,*5A
1522008373.11,24706,11.5,72578.3,-9.09,-42.31,-42.25,0,*52
1522008374.37,24707,11.5,72580.5,-9.09,-42.05,-42.05,0,*56
1522008375.64,24708,11.5,72582.0,-9.07,-42.25,-42.31,0,*52
1522008376.92,24709,11.5,72580.0,-9.07,-42.45,-42.45,0,*56
1522008378.21,24710,11.5,72578.8,-9.07,-42.31,-42.31,0,*5E
1522008379.47,24711,11.5,72578.3,-9.05,-42.05,-42.05,0,*5D
1522008380.71,24712,11.5,72578.5,-9.07,-42.25,-42.13,0,*59
1522008382.0,24713,11.5,72576.3,-9.07,-42.31,-42.31,0,*5D
1522008383.27,24714,11.5,72582.5,-9.07,-42.25,-42.31,0,*5F
1522008384.53,24715,11.5,72578.3,-9.07,-42.31,-42.25,0,*5E
1522008385.82,24716,11.5,72580.8,-9.07,-42.45,-42.31,0,*5B
1522008387.11,24717,11.5,72582.5,-9.07,-42.45,-42.31,0,*5A
1522008388.32,24718,11.5,72586.0,-9.05,-42.37,-42.25,0,*57
1522008389.54,24719,11.5,72582.5,-9.05,-42.37,-42.37,0,*55
1522008390.78,24720,11.5,72580.3,-9.09,-42.31,-42.25,0,*56
1522008392.04,24721,11.5,72584.3,-9.07,-42.45,-42.51,0,*59
1522008393.33,24722,11.5,72582.5,-9.07,-42.31,-42.31,0,*5F
1522008394.58,24723,11.5,72584.3,-9.05,-42.25,-42.19,0,*53
1522008395.82,24724,11.5,72580.5,-9.05,-42.25,-42.19,0,*54
1522008397.04,24725,11.5,72582.5,-9.05,-42.25,-42.25,0,*5A
1522008398.25,24726,11.5,72582.5,-9.05,-42.37,-42.37,0,*59
1522008399.46,24727,11.5,72580.5,-9.05,-42.37,-42.37,0,*58
1522008400.67,24728,11.5,72584.8,-9.05,-42.37,-42.37,0,*57
1522008401.93,24729,11.5,72584.8,-9.05,-42.45,-42.45,0,*56
1522008403.19,24730,11.44,72582.5,-9.05,-42.45,-42.45,0,*5E
1522008404.45,24731,11.5,72588.3,-9.07,-42.51,-42.45,0,*58
1522008405.69,24732,11.5,72580.5,-9.05,-42.45,-42.37,0,*59
1522008406.92,24733,11.5,72586.5,-9.05,-42.45,-42.37,0,*58
1522008408.13,24734,11.5,72580.8,-9.05,-42.37,-42.37,0,*5A
1522008409.37,24735,11.5,72582.0,-9.05,-42.45,-42.37,0,*5E
1522008410.6,24736,11.5,72580.5,-9.05,-42.45,-42.37,0,*5D
1522008411.82,24737,11.5,72582.0,-9.05,-42.37,-42.37,0,*59
1522008413.05,24738,11.5,72586.5,-9.03,-42.37,-42.37,0,*50
1522008414.27,24739,11.5,72586.5,-9.05,-42.25,-42.37,0,*54
1522008415.53,24740,11.5,72580.3,-9.03,-42.45,-42.25,0,*59
1522008416.79,24741,11.44,72580.8,-9.05,-42.45,-42.45,0,*58
1522008418.05,24742,11.5,72582.8,-9.03,-42.45,-42.37,0,*58
1522008419.28,24743,11.5,72580.8,-9.05,-42.45,-42.37,0,*5F
1522008420.54,24744,11.44,72576.0,-9.05,-42.57,-42.57,0,*5D
1522008421.78,24745,11.5,72582.5,-9.05,-42.45,-42.37,0,*59
1522008423.01,24746,11.5,72580.0,-9.05,-42.37,-42.45,0,*5A
1522008424.25,24747,11.5,72584.3,-9.05,-42.37,-42.45,0,*5B
1522008425.48,24748,11.5,72582.3,-9.05,-42.37,-42.45,0,*54
1522008426.72,24749,11.5,72582.8,-9.03,-42.37,-42.37,0,*56
1522008427.93,24750,11.5,72580.0,-9.05,-42.37,-42.37,0,*58
1522008429.15,24751,11.44,72582.5,-9.05,-42.25,-42.25,0,*59
1522008430.39,24752,11.5,72580.5,-9.03,-42.37,-42.25,0,*5F
1522008431.6,24753,11.44,72580.0,-9.05,-42.37,-42.37,0,*5B
1522008432.86,24754,11.44,72580.0,-9.05,-42.45,-42.45,0,*5C
1522008434.1,24755,11.5,72586.5,-9.05,-42.25,-42.19,0,*52
1522008435.31,24756,11.5,72584.8,-9.05,-42.37,-42.37,0,*5E
1522008436.56,24757,11.5,72578.5,-9.05,-42.25,-42.19,0,*50
1522008437.79,24758,11.5,72582.0,-9.05,-42.37,-42.45,0,*55
1522008439.03,24759,11.5,72580.3,-9.05,-42.37,-42.45,0,*54
1522008440.24,24760,11.5,72582.5,-9.05,-42.37,-42.25,0,*58
1522008441.5,24761,11.44,72580.3,-9.05,-42.45,-42.57,0,*59
1522008442.72,24762,11.5,72580.0,-9.05,-42.63,-42.63,0,*59
1522008443.98,24763,11.5,72576.8,-9.05,-42.45,-42.57,0,*5B
1522008445.24,24764,11.44,72574.3,-9.05,-42.45,-42.45,0,*5F
1522008446.48,24765,11.5,72582.0,-9.05,-42.25,-42.05,0,*5C
1522008447.74,24766,11.44,72580.3,-9.03,-42.25,-42.05,0,*59
1522008449.01,24767,11.5,72580.3,-9.03,-42.25,-42.19,0,*55
1522008450.28,24768,11.5,72580.3,-9.05,-42.05,-42.19,0,*5E
1522008451.49,24769,11.44,72582.5,-9.05,-42.37,-42.25,0,*51
1522008452.71,24770,11.44,72580.8,-9.05,-42.37,-42.25,0,*59
1522008453.94,24771,11.5,72580.5,-9.03,-42.37,-42.37,0,*5D
1522008455.18,24772,11.5,72578.0,-9.03,-42.25,-42.25,0,*5E
1522008456.45,24773,11.44,72580.8,-9.03,-42.25,-42.19,0,*50
1522008457.69,24774,11.44,72580.3,-9.05,-42.25,-42.05,0,*5C
1522008458.93,24775,11.44,72574.8,-9.05,-42.25,-42.05,0,*5D
1522008460.2,24776,11.44,72572.0,-9.05,-42.19,-42.05,0,*51
1522008461.43,24777,11.44,72578.0,-9.03,-42.37,-42.37,0,*5B
1522008462.67,24778,11.44,72578.5,-8.99,-42.13,-41.99,0,*57
1522008463.93,24779,11.44,72576.5,-8.99,-41.93,-41.99,0,*5D
1522008465.18,24780,11.5,72582.5,-8.99,-41.99,-41.93,0,*5B
1522008466.47,24781,11.44,72576.0,-9.03,-42.19,-42.05,0,*5F
1522008467.71,24782,11.5,72578.5,-8.99,-42.13,-41.99,0,*52
1522008468.96,24783,11.44,72576.3,-8.99,-41.99,-41.93,0,*58
1522008470.22,24784,11.44,72578.3,-8.99,-41.99,-41.93,0,*5F
1522008471.45,24785,11.44,72578.8,-8.99,-41.99,-42.13,0,*55
1522008472.68,24786,11.44,72580.0,-8.99,-41.99,-41.99,0,*57
1522008473.91,24787,11.44,72576.3,-8.99,-41.99,-41.99,0,*56
1522008475.16,24788,11.44,72576.8,-8.97,-42.13,-42.19,0,*5D
1522008476.39,24789,11.44,72576.0,-8.99,-42.13,-41.99,0,*59
1522008477.66,24790,11.44,72576.3,-8.97,-42.19,-42.19,0,*5E
1522008478.9,24791,11.44,72574.0,-8.97,-42.31,-42.37,0,*59
1522008480.17,24792,11.44,72576.0,-8.97,-42.31,-42.31,0,*5C
1522008481.43,24793,11.44,72576.8,-8.97,-42.19,-42.19,0,*5D
1522008482.69,24794,11.44,72572.3,-8.99,-42.31,-42.37,0,*52
1522008483.93,24795,11.44,72582.5,-8.97,-42.19,-41.99,0,*50
1522008485.17,24796,11.44,72580.0,-8.97,-42.19,-41.99,0,*53
1522008486.38,24797,11.44,72578.5,-8.97,-42.13,-42.13,0,*59
1522008487.68,24798,11.44,72576.0,-8.99,-42.19,-42.19,0,*58
1522008488.91,24799,11.44,72580.3,-8.97,-42.19,-42.13,0,*5D
1522008490.15,24800,11.44,72582.0,-8.99,-42.13,-42.13,0,*56
1522008491.44,24801,11.44,72582.0,-8.99,-42.31,-42.19,0,*5D
1522008492.68,24802,11.44,72580.3,-8.97,-42.37,-42.31,0,*5C
1522008493.91,24803,11.44,72578.8,-8.97,-42.31,-42.13,0,*5B
1522008495.18,24804,11.44,72580.0,-8.97,-42.19,-42.19,0,*5C
1522008496.42,24805,11.44,72578.5,-8.95,-42.25,-42.13,0,*5A
1522008497.65,24806,11.44,72576.8,-8.95,-42.13,-42.13,0,*5C
1522008498.89,24807,11.44,72572.5,-8.95,-42.13,-42.13,0,*5D
1522008500.12,24808,11.44,72572.0,-8.95,-42.13,-42.13,0,*52
1522008501.38,24809,11.44,72578.5,-8.95,-42.13,-42.05,0,*54
1522008502.64,24810,11.44,72576.5,-8.95,-42.13,-42.05,0,*5C
1522008503.92,24811,11.44,72580.8,-8.95,-42.05,-42.05,0,*5A